Torna al catalogo

STARLINK-4774

AttivoComunicazioniVLEO
NORAD 56138·PAYLOAD·🇺🇸 United States

Lanciato Mar 29, 2023 da Cape Canaveral Space Force Station

Loading…

Prossimi Passaggi (prossime 24 ore)

TLE

AggiornatoSource: CelesTrak SupGP

Epoca: Sep 14, 2026, 13:19 UTC

1 56138C 23046AX  26257.55534722 -.00003932  00000+0 -14243-3 0  2575
2 56138  42.9995 160.5626 0001075 248.7951  67.9400 15.27572748    13

Traccia STARLINK-4774 in tempo reale con AllMySat

Download on the App Store